Terminal Aerodrome Forecast
Issued by NWS Upton, NY

Home | Current Version | Previous Version | Text Only | Print | Product List | Glossary On
Versions: 1 2 3 4 5 6 7 8 9 10 11 12 13 14 15 16 17 18 19 20 21 22 23 24 25 26 27 28 29 30 31 32 33 34 35 36 37 38 39 40 41 42 43
983
FTUS41 KOKX 281207 AAA
TAFISP
TAF AMD
KISP 281207Z 2812/2912 VRB04KT P6SM SCT005 BKN060
      TEMPO 2812/2814 4SM BR BKN005
     FM281400 25008KT P6SM FEW007 BKN070
     FM281700 19008KT P6SM SCT250
     FM282300 VRB05KT P6SM SCT250
     FM290900 18006KT P6SM OVC120 PROB30 2909/2912 5SM -SHRA BR
      BKN040=

USA.gov is the U.S. government's official web portal to all federal, state and local government web resources and services.